GFSNIL_sfc_rhum_000.txt.gz
RH
50 52 50 49 49 48 48 49 52 55 56 55 56 60 62 67 70 75 81 80 77 76
43 50 53 51 50 50 51 51 51 55 57 56 55 56 60 64 67 67 70 77 78 77
33 35 41 44 48 49 49 50 51 55 56 58 57 57 59 63 64 68 72 75 76 77
33 34 35 37 38 41 41 43 47 48 52 54 56 56 60 61 64 68 70 74 76 76
34 34 33 33 35 36 38 39 41 44 48 51 54 56 58 63 67 67 72 74 75 75
36 37 36 35 33 32 34 37 40 44 49 52 54 57 59 60 62 62 66 70 76 72
38 38 38 38 38 37 35 36 37 39 42 48 52 57 62 61 65 69 65 69 71 73
44 42 42 43 42 39 38 38 39 39 41 43 49 56 62 69 74 74 72 71 71 76
50 50 52 50 50 46 44 41 40 40 40 42 48 70 87 84 72 76 79 77 75 75
51 52 52 51 51 52 51 47 45 41 39 41 42 68 86 92 83 80 76 77 81 81
49 48 48 48 48 49 47 48 47 46 45 46 44 72 85 92 79 79 80 79 82 84
44 47 47 47 47 46 46 48 48 48 49 48 46 67 81 88 74 86 85 83 86 87
44 46 45 45 47 46 46 48 49 51 49 55 50 61 79 83 72 82 84 92 89 94
37 36 34 39 43 46 48 50 49 49 48 52 55 55 79 87 77 79 82 89 96 95

GFSNIL_sfc_rhum_003.txt.gz
RH
37 44 46 46 46 46 46 46 46 50 54 56 58 60 63 68 71 74 76 77 75 73
28 31 35 39 41 45 45 47 49 50 52 54 56 56 59 64 66 68 70 75 78 76
31 30 31 32 34 36 37 39 43 46 48 52 54 56 57 59 60 64 67 70 72 75
34 33 32 32 31 32 32 33 35 36 39 42 46 49 55 58 60 63 65 66 71 74
34 34 34 33 34 33 34 33 33 34 36 39 43 48 51 56 57 62 65 66 70 73
38 40 40 39 38 36 36 35 34 36 38 39 43 46 51 53 56 60 62 66 68 70
44 44 45 45 46 45 44 44 43 41 40 41 40 44 48 53 60 63 62 65 66 66
48 46 46 48 48 47 48 48 48 48 46 44 44 40 47 54 60 64 65 69 68 70
46 47 49 47 46 46 47 47 48 49 49 48 44 60 74 78 61 62 68 73 70 70
42 44 45 45 45 47 47 46 46 46 46 47 49 66 73 78 64 63 66 70 75 73
45 45 44 44 44 44 42 45 45 45 47 52 50 69 77 76 65 63 64 68 72 77
35 39 39 39 37 37 40 43 45 47 50 50 50 68 79 78 67 72 69 69 70 73
35 35 34 35 37 35 35 41 44 45 44 51 48 62 78 74 67 74 77 78 72 80
32 32 30 31 33 33 31 36 42 41 38 38 41 49 72 76 72 73 76 82 82 84

GFSNIL_sfc_rhum_006.txt.gz
RH
45 51 53 57 54 60 63 67 67 70 72 74 72 73 76 79 81 81 82 83 80 78
47 47 50 49 50 54 53 44 46 58 65 68 69 67 68 76 76 79 79 83 84 82
49 48 48 49 49 49 48 46 49 50 52 54 60 65 72 73 73 74 74 75 79 79
52 52 51 50 48 48 48 47 46 46 47 49 52 52 54 58 63 72 73 75 76 77
55 57 58 57 54 53 54 52 51 50 49 48 48 49 54 55 57 63 66 68 72 70
62 64 64 60 57 55 56 55 55 55 56 55 54 52 50 50 53 58 61 66 68 68
65 62 58 56 56 55 52 54 54 53 53 54 54 54 54 53 60 65 62 67 69 69
63 56 55 54 52 51 51 50 50 50 50 51 52 47 62 59 61 65 65 65 65 67
55 54 56 54 52 52 52 50 48 49 51 51 48 66 70 72 72 68 70 71 68 69
45 46 49 49 47 49 46 43 49 49 50 52 52 65 70 83 71 71 72 73 75 73
44 43 42 42 42 42 40 42 40 43 49 52 50 70 78 82 62 67 71 73 74 75
40 40 39 40 38 35 37 39 36 36 41 50 50 65 73 62 59 68 69 65 67 68
34 35 35 34 33 30 33 31 32 30 36 47 44 58 64 60 58 64 68 66 67 78
29 29 28 30 30 30 29 33 33 31 31 34 40 39 58 60 57 63 65 61 64 68

GFSNIL_sfc_rhum_009.txt.gz
RH
55 58 57 58 58 60 61 59 58 54 57 60 57 68 79 86 89 89 91 88 89 87
57 59 59 60 60 61 57 48 51 52 53 50 52 55 69 75 84 83 82 83 84 84
62 62 62 63 64 62 57 57 57 56 56 55 54 53 56 59 62 67 72 80 82 80
66 66 62 62 62 61 60 58 58 57 57 58 59 58 58 58 57 58 63 69 74 77
68 69 68 63 63 57 59 57 57 57 57 54 55 57 59 61 59 60 63 66 73 74
69 68 68 64 53 51 51 52 54 54 54 53 54 54 57 55 64 61 64 67 69 71
66 60 57 53 53 51 50 52 51 47 45 50 53 52 54 56 58 63 68 71 71 70
59 48 47 50 51 49 47 49 45 41 46 43 47 46 56 60 68 74 71 74 67 68
48 46 48 47 46 45 45 44 41 43 42 41 48 56 67 73 61 55 58 63 68 72
43 45 45 42 43 43 42 38 36 48 36 42 38 56 66 77 48 50 54 68 67 65
38 38 38 38 38 38 36 34 37 32 34 35 30 58 70 64 45 50 51 62 63 69
33 33 33 35 34 33 32 34 30 30 32 32 33 60 60 52 49 49 52 57 64 54
32 32 32 32 30 30 32 31 30 29 30 42 38 54 56 50 52 55 59 64 61 64
32 33 31 31 31 32 34 33 34 32 31 36 38 37 46 51 50 56 65 67 70 64

GFSNIL_sfc_rhum_012.txt.gz
RH
66 69 68 68 70 71 70 70 64 63 61 60 58 58 60 71 76 81 89 92 91 86
72 71 72 73 73 73 68 56 58 66 65 62 62 61 64 66 69 73 79 82 84 88
74 71 71 70 70 65 61 60 60 59 60 60 57 58 61 63 64 67 70 73 77 80
76 71 71 70 71 66 65 59 58 57 58 56 54 55 58 59 59 65 68 65 71 74
74 72 69 61 55 53 52 50 52 52 49 45 49 54 57 57 64 58 63 66 74 76
69 62 55 51 49 47 48 46 47 44 43 43 52 42 49 60 52 59 67 72 79 77
61 56 53 50 46 45 45 43 42 37 38 47 38 39 51 45 58 70 68 75 61 61
56 52 52 48 45 43 42 40 39 35 34 45 31 33 43 44 55 71 52 53 47 57
44 41 43 40 40 39 38 39 36 35 37 35 27 53 54 55 61 47 48 50 46 54
34 36 36 36 36 36 37 37 34 36 32 31 36 45 55 65 50 41 39 49 49 49
34 34 33 34 34 36 33 33 33 33 32 33 29 45 52 56 39 39 41 53 53 58
35 34 34 35 36 34 33 34 35 33 34 35 34 47 49 48 42 48 53 52 55 65
37 36 36 37 37 35 36 36 36 37 36 41 36 47 50 50 49 56 57 58 69 66
39 39 37 38 38 39 41 41 44 41 40 39 44 46 57 59 55 58 59 63 66 60

GFSNIL_sfc_rhum_015.txt.gz
RH
76 77 76 77 78 78 77 77 66 65 67 66 66 63 63 74 82 82 88 88 85 85
77 75 75 74 74 74 69 54 57 65 66 63 60 56 61 65 69 71 81 87 91 81
76 73 73 72 72 69 64 60 60 60 58 55 49 50 56 59 58 66 73 64 74 77
74 70 69 65 65 63 61 58 51 50 46 42 44 52 43 45 53 64 56 63 72 76
65 61 56 53 52 48 48 46 45 43 36 36 41 48 35 41 58 45 59 66 72 82
58 55 56 54 47 43 45 41 40 39 36 36 41 43 30 46 40 44 50 70 72 53
54 53 51 52 47 43 42 38 39 36 35 36 39 31 32 43 44 48 57 50 52 50
49 47 47 46 44 40 38 36 36 36 33 35 32 25 39 41 47 61 48 41 34 39
40 40 42 39 38 38 37 36 36 34 36 35 30 43 47 48 50 49 42 42 44 53
39 40 40 38 38 38 38 37 36 36 36 36 36 47 51 53 45 44 47 50 53 53
40 39 39 39 39 41 38 38 38 38 38 39 36 50 52 53 46 51 52 53 55 58
41 41 40 41 41 40 40 42 41 40 42 43 42 52 54 54 54 57 58 57 58 62
44 43 43 44 43 42 44 44 43 44 44 49 46 53 59 58 57 64 64 71 74 68
46 46 45 46 46 46 48 48 51 48 49 49 52 57 62 62 57 60 75 91 66 62

GFSNIL_sfc_rhum_018.txt.gz
RH
77 76 76 76 74 71 71 72 62 64 65 63 60 53 56 68 77 76 85 91 91 83
75 73 72 72 72 70 67 50 52 64 63 54 45 47 58 54 50 59 78 81 82 80
70 67 65 63 62 62 59 58 57 50 48 38 40 40 58 42 37 55 54 46 71 74
62 58 55 56 56 55 54 53 48 46 40 38 38 37 52 34 35 47 43 53 57 77
53 53 52 53 52 49 50 47 42 43 38 36 37 40 37 35 46 46 50 52 63 57
49 50 49 49 48 44 43 40 38 39 39 36 39 36 34 35 40 44 49 60 52 45
46 46 45 45 44 43 43 42 39 37 37 37 37 35 33 40 45 48 52 53 47 43
43 43 43 45 45 44 44 39 39 38 36 37 37 28 43 45 48 51 50 47 47 49
42 44 46 45 44 44 42 40 41 40 40 40 34 48 52 51 51 50 51 55 54 54
43 46 46 44 43 43 43 45 43 42 42 43 42 52 55 57 51 55 58 59 59 58
45 46 46 46 46 48 45 45 45 44 45 46 42 55 58 60 56 59 60 60 62 64
46 48 48 48 48 47 47 48 47 46 47 50 49 58 61 60 58 60 62 62 63 72
48 50 50 51 50 50 51 48 48 50 50 54 53 60 63 59 57 63 65 66 84 65
50 52 51 52 54 52 54 54 56 54 52 55 58 62 63 62 55 59 77 87 64 58

GFSNIL_sfc_rhum_021.txt.gz
RH
52 50 45 43 39 38 38 38 38 36 33 30 28 30 33 46 45 47 58 70 51 53
43 41 40 37 35 37 35 28 31 34 33 29 28 28 34 40 29 34 51 46 46 52
37 34 34 32 32 34 32 32 30 30 30 28 28 28 31 31 30 32 37 35 44 53
34 31 30 29 30 32 31 30 28 28 28 27 27 27 28 27 27 33 37 40 46 56
32 30 28 29 30 29 29 29 29 28 27 26 27 28 27 29 31 37 41 42 49 49
29 29 28 28 29 29 30 29 28 29 29 28 30 30 29 30 37 40 41 43 46 44
29 30 30 31 31 31 30 31 30 30 30 31 31 32 30 39 42 43 43 44 46 45
33 33 33 34 34 33 34 33 33 33 32 32 34 26 42 44 46 47 47 48 46 48
34 35 38 36 35 35 36 34 36 34 35 35 32 50 55 54 50 50 51 53 51 50
36 38 38 37 37 38 38 38 36 35 35 36 38 54 59 60 51 52 52 52 53 53
38 38 38 38 38 39 38 38 36 36 38 40 39 58 61 63 51 51 50 51 53 56
39 40 40 39 39 40 39 40 38 40 40 42 44 58 64 59 51 52 53 51 53 67
41 41 40 41 41 42 42 42 43 42 43 50 46 61 64 57 52 57 57 62 65 61
41 42 40 42 44 45 46 46 48 46 43 47 51 54 63 62 52 57 74 79 57 51

GFSNIL_sfc_rhum_024.txt.gz
RH
34 31 26 25 23 20 20 20 22 21 20 19 19 20 21 28 33 30 30 40 34 32
26 25 25 21 19 20 20 17 18 19 20 19 19 20 24 24 22 23 25 28 30 32
22 19 18 18 19 20 18 18 18 18 18 19 18 18 20 21 21 22 25 26 29 32
20 17 16 17 17 18 17 18 18 18 18 17 18 18 19 19 21 24 27 29 31 34
20 18 17 18 18 17 18 17 18 18 18 18 19 20 20 21 23 27 30 31 33 35
19 19 19 19 19 18 19 19 18 20 20 20 22 22 22 21 26 29 31 33 35 36
21 21 20 20 21 21 20 21 22 22 22 23 22 24 21 30 33 33 33 36 38 38
24 23 22 24 23 22 23 23 24 24 23 22 25 19 35 40 40 39 39 38 36 38
24 25 27 25 24 24 25 25 26 24 23 24 22 40 51 53 46 42 40 40 38 36
25 26 26 25 25 26 27 26 26 24 24 25 26 42 56 60 48 43 39 39 39 37
26 25 24 24 24 26 25 26 25 24 26 29 26 46 56 63 45 41 39 39 39 40
25 25 25 25 26 26 27 27 26 28 29 29 30 48 59 56 44 43 41 39 40 52
25 25 25 26 27 28 28 29 29 28 27 36 34 49 58 55 46 47 43 47 52 54
25 25 25 27 28 29 29 30 29 28 28 33 38 41 56 60 48 48 60 66 52 44

GFSNIL_sfc_rhum_027.txt.gz
RH
32 30 26 24 22 20 20 20 20 19 18 18 19 19 23 31 36 37 35 36 34 34
24 24 24 20 19 20 18 15 17 18 18 18 18 18 24 26 24 25 28 30 33 32
21 19 18 18 18 18 16 16 17 17 17 17 17 18 20 22 23 23 26 27 30 32
21 18 17 17 16 16 15 16 16 16 16 16 17 18 19 21 22 22 27 29 32 35
21 19 17 17 17 15 16 16 17 17 17 18 19 20 20 22 22 24 29 31 34 35
21 20 18 17 17 17 18 18 18 20 21 20 22 22 21 21 22 29 32 34 36 38
22 20 20 19 20 19 19 21 22 22 23 23 21 23 23 25 33 36 36 39 40 39
23 21 21 22 22 21 22 23 24 24 24 23 24 19 30 36 42 44 44 41 38 37
22 22 24 23 23 23 25 25 25 26 25 25 22 36 42 44 47 47 46 44 39 37
21 22 23 23 23 25 26 25 26 25 25 25 27 39 44 51 49 50 44 41 40 38
21 22 22 22 23 26 24 25 25 25 26 29 25 40 46 53 49 46 44 41 41 42
21 22 22 24 25 25 26 27 26 28 29 27 26 41 47 51 47 49 47 43 43 50
21 22 23 24 26 27 27 28 28 27 25 31 29 42 49 49 48 53 50 53 58 59
22 22 24 26 27 28 28 29 28 26 25 28 32 36 49 53 47 51 57 76 60 52

GFSNIL_sfc_rhum_030.txt.gz
RH
42 42 37 32 33 32 32 31 28 28 27 27 27 28 30 43 49 41 46 40 46 47
32 31 31 28 28 31 27 19 24 26 26 26 26 26 30 39 35 35 38 42 44 44
27 25 25 26 25 24 23 23 25 24 25 25 26 27 28 35 35 31 38 31 36 37
27 25 24 24 24 23 23 23 23 24 24 25 27 27 29 30 29 29 34 34 36 40
28 25 25 24 24 23 24 24 25 26 27 28 30 30 30 30 30 34 38 39 43 43
29 28 26 25 26 25 26 27 29 29 32 32 34 33 32 29 34 39 43 46 49 49
30 29 28 28 29 29 29 31 33 33 34 36 33 32 30 35 41 46 47 52 53 50
31 30 30 32 32 31 33 33 35 36 36 36 33 24 33 38 45 50 55 55 52 49
29 30 33 33 33 33 36 36 36 37 37 37 27 39 42 41 45 53 57 60 52 47
28 30 32 31 33 36 37 38 38 38 36 37 38 41 42 44 44 54 57 55 53 48
28 29 31 32 34 36 37 38 38 38 38 40 32 40 42 47 48 53 56 55 54 54
28 30 32 34 36 38 40 41 41 38 38 39 33 42 44 45 48 51 55 54 55 61
29 31 32 35 38 39 41 37 36 34 35 39 34 44 47 47 47 54 56 58 70 69
31 33 34 38 40 41 41 40 41 35 35 38 42 45 52 55 49 53 61 84 70 63

GFSNIL_sfc_rhum_033.txt.gz
RH
39 41 37 34 34 34 32 32 29 29 28 28 29 31 34 44 49 42 47 41 45 54
33 32 32 29 30 32 29 21 27 27 28 28 29 30 34 43 38 40 42 46 49 48
28 28 27 27 26 25 26 26 27 27 28 29 31 31 33 38 40 38 42 40 46 42
28 26 25 26 26 25 26 26 27 28 30 31 33 33 35 36 34 37 43 47 45 50
28 27 27 27 27 28 27 28 30 31 32 34 35 36 37 37 37 43 49 51 54 54
31 29 28 29 29 29 30 30 33 34 36 37 39 41 38 37 39 47 51 57 60 58
32 31 31 32 32 33 33 34 36 37 38 41 41 39 38 38 47 52 53 61 60 59
34 32 34 35 35 34 36 36 39 40 41 41 39 26 38 41 48 55 61 60 57 57
32 32 35 34 35 36 39 39 41 42 42 42 31 43 44 42 43 51 59 63 56 56
31 32 33 34 35 37 40 43 43 42 43 43 45 44 44 45 42 54 64 60 59 57
31 30 33 34 37 40 42 43 43 44 44 46 36 44 44 48 47 56 62 61 60 61
29 31 34 36 39 41 43 46 46 44 45 45 41 47 49 50 52 53 57 55 59 67
31 32 35 39 42 43 46 44 44 40 42 45 44 54 56 56 55 60 59 72 76 66
33 35 37 42 44 45 46 47 49 46 44 47 52 59 59 59 54 59 79 82 69 60

GFSNIL_sfc_rhum_036.txt.gz
RH
39 41 39 36 36 34 34 33 30 30 30 30 32 34 37 47 50 44 49 44 49 56
35 34 33 31 31 32 29 23 28 30 30 32 33 34 38 46 41 43 45 49 53 55
31 29 28 27 26 27 27 28 30 31 32 34 35 36 38 42 42 41 47 44 53 55
29 28 28 27 27 27 28 30 31 33 34 35 37 38 41 40 39 41 46 52 56 62
30 28 28 29 29 30 30 32 34 36 37 38 40 42 43 43 43 43 50 55 62 64
31 30 31 32 32 32 34 35 37 38 41 42 44 46 44 43 42 47 53 58 64 67
34 32 33 35 35 35 36 38 40 42 43 45 44 44 42 45 51 55 54 60 67 66
36 36 36 36 36 37 39 40 42 43 43 44 42 29 44 48 53 57 58 62 62 61
36 36 37 37 37 37 40 41 43 44 45 46 34 46 46 46 47 52 59 62 58 59
34 34 36 35 36 39 41 45 46 46 46 47 49 46 49 52 50 59 62 64 61 60
34 33 34 35 37 41 43 46 47 46 48 51 40 49 53 57 60 62 62 65 66 68
32 33 35 37 41 43 46 49 48 48 50 48 50 51 56 57 60 61 64 60 64 76
34 34 36 39 44 46 48 47 49 47 46 48 49 54 57 56 56 63 64 74 81 69
35 36 39 45 47 48 51 51 52 48 49 49 53 62 59 58 55 60 86 72 65 62

GFSNIL_sfc_rhum_039.txt.gz
RH
42 44 42 40 38 37 36 36 32 32 33 34 35 37 40 49 51 46 50 46 52 56
38 37 35 33 33 35 32 27 31 33 34 36 37 38 42 49 44 45 47 51 54 58
32 30 30 29 29 29 30 31 33 35 36 38 39 40 42 47 46 45 49 48 55 59
31 29 28 29 29 30 31 33 35 37 38 40 42 43 46 46 43 45 47 51 58 62
31 30 30 31 32 32 33 36 38 40 41 43 44 46 46 47 46 49 52 55 61 63
32 32 33 34 34 34 36 39 41 42 44 45 47 47 46 45 48 53 56 60 63 62
35 34 36 37 36 38 39 41 44 44 44 46 46 46 44 48 57 60 57 61 65 67
39 40 39 38 39 40 42 42 44 44 45 47 44 31 52 55 58 61 63 64 64 62
41 39 39 38 39 40 42 44 45 46 47 48 36 48 50 52 64 65 66 68 63 64
38 37 38 37 39 41 44 47 47 46 48 50 51 48 52 55 65 70 72 70 66 64
35 35 36 38 41 44 45 46 46 48 50 53 43 52 53 57 66 72 72 70 71 72
32 34 38 41 43 44 46 48 50 51 52 52 52 55 56 58 63 63 70 69 67 79
36 37 40 42 45 46 49 48 49 47 50 54 55 58 58 57 58 64 63 81 78 66
38 40 43 46 47 52 54 52 56 53 57 58 60 69 59 59 57 61 65 63 68 65

GFSNIL_sfc_rhum_042.txt.gz
RH
44 45 44 40 39 38 37 38 34 35 36 37 38 40 44 52 51 48 51 47 52 58
41 39 36 35 35 36 36 30 34 36 37 39 40 41 45 51 47 49 49 51 55 60
34 32 32 31 32 33 33 35 36 37 39 41 42 44 46 49 49 46 51 48 55 60
30 29 30 30 33 33 35 36 38 39 41 43 45 46 47 47 44 49 54 55 59 62
31 31 32 33 34 35 37 39 40 42 43 44 46 47 47 47 49 54 58 60 63 65
34 34 36 37 37 37 39 42 42 43 45 46 48 47 46 46 52 59 62 64 67 68
37 38 38 39 39 41 42 41 44 44 45 47 47 46 44 54 62 65 63 66 69 70
43 42 42 42 42 43 43 43 45 46 46 48 45 32 55 61 67 71 70 71 68 67
43 42 44 42 42 42 42 44 47 47 48 50 37 48 51 54 70 72 70 74 68 71
42 42 42 37 39 41 44 48 49 49 50 51 53 51 54 54 66 71 77 75 71 66
41 39 36 38 40 44 48 50 52 51 52 54 47 56 55 58 69 74 75 75 76 77
36 35 38 41 45 49 50 52 53 52 53 56 60 58 59 60 71 71 70 69 74 82
35 37 42 47 49 51 52 48 48 48 54 59 62 62 62 58 64 70 64 68 69 67
38 45 48 50 51 53 54 54 60 59 65 65 67 74 61 60 61 65 65 64 66 68

GFSNIL_sfc_rhum_045.txt.gz
RH
35 36 33 32 30 27 26 28 30 29 29 30 31 32 35 40 40 42 39 37 36 39
35 34 33 29 27 27 27 27 29 31 31 32 32 33 38 37 34 35 36 37 39 41
30 27 27 26 27 28 27 29 30 31 31 32 33 33 33 33 35 34 38 38 41 42
27 25 24 25 26 27 28 29 30 30 31 32 32 32 30 32 34 39 42 43 45 47
26 26 25 26 27 28 29 30 31 31 31 32 33 32 30 34 39 43 46 47 49 50
28 27 27 28 30 30 31 32 32 32 32 32 35 33 32 37 42 47 49 50 52 51
30 29 29 30 32 32 33 33 33 33 34 36 34 33 35 44 48 51 51 54 53 52
34 33 33 35 35 35 34 34 35 35 35 35 35 27 43 48 51 54 55 53 51 51
36 34 37 37 36 36 36 36 36 36 37 36 31 49 52 51 50 54 54 53 50 52
35 36 37 36 35 36 36 36 37 36 37 37 39 52 54 54 51 53 53 52 53 54
34 35 36 35 35 37 36 36 36 37 39 41 40 58 55 59 52 54 53 54 55 57
32 34 34 36 36 37 37 37 38 39 42 44 48 60 60 57 52 54 54 54 55 57
33 34 38 37 38 40 39 38 39 40 45 55 49 62 61 56 53 57 54 55 51 60
36 38 38 40 40 41 42 43 45 48 50 51 53 54 61 61 54 56 60 56 57 56

GFSNIL_sfc_rhum_048.txt.gz
RH
45 44 43 38 34 29 24 23 24 22 23 24 25 25 28 32 32 36 32 31 29 30
34 34 32 28 27 27 24 22 24 24 24 24 24 24 30 27 24 26 28 29 32 33
31 28 26 25 26 23 20 22 24 24 24 24 23 23 23 23 25 26 28 30 33 33
26 25 24 23 21 21 20 21 21 22 22 22 22 21 20 22 26 29 32 33 35 37
26 24 22 21 21 19 20 20 21 21 20 21 22 21 20 23 28 32 34 36 38 38
25 22 22 21 21 20 21 22 22 22 22 22 24 22 21 26 30 34 36 38 40 40
24 23 22 21 22 23 23 23 24 23 24 25 23 24 27 33 36 36 36 40 42 40
25 24 24 25 25 24 24 24 25 25 25 25 27 21 36 37 37 38 38 38 38 38
26 25 28 27 27 27 28 27 27 27 26 26 22 45 51 50 40 38 40 39 37 37
26 28 29 28 28 29 28 27 27 27 27 26 28 49 54 55 43 41 40 40 40 39
26 28 28 28 29 31 28 27 26 27 28 30 28 53 56 58 43 40 40 41 42 44
25 27 27 29 31 29 27 27 27 30 31 31 31 48 59 55 42 41 41 40 41 45
25 26 30 32 30 30 28 30 29 30 30 36 33 43 57 54 43 44 42 43 41 50
28 31 32 30 29 30 31 32 29 31 29 32 36 38 54 59 49 46 49 47 42 42

GFSNIL_sfc_rhum_051.txt.gz
RH
54 53 52 49 44 38 36 39 30 26 25 26 26 27 32 38 40 43 38 34 34 34
50 48 49 39 32 31 29 27 27 26 24 24 24 24 33 32 25 26 29 32 35 36
44 38 34 30 29 29 26 26 26 24 24 24 23 22 23 23 25 25 28 31 33 35
33 30 29 28 26 26 24 24 22 22 22 21 21 20 20 21 23 27 30 32 35 37
29 27 26 25 25 22 23 20 20 19 19 19 20 19 19 21 24 28 32 34 36 38
27 26 24 24 24 22 21 21 20 20 20 20 22 21 20 23 26 30 33 35 38 40
27 26 24 23 23 23 22 22 22 21 22 23 22 23 25 30 33 35 34 37 39 39
28 26 25 26 25 24 24 23 24 24 24 24 27 21 36 39 38 37 36 37 36 37
29 28 30 28 27 28 27 27 27 26 25 26 21 44 50 51 45 40 39 40 37 37
29 30 30 29 29 31 30 28 28 27 26 26 28 44 52 54 47 44 40 40 41 40
29 29 29 29 31 32 29 28 26 27 27 30 27 45 51 56 46 40 39 40 42 43
27 28 29 30 30 29 28 28 27 30 30 29 28 41 51 56 45 42 42 40 40 44
27 28 31 32 31 30 30 32 31 29 29 31 32 35 47 52 46 48 45 47 45 49
29 30 31 32 30 30 32 35 30 31 27 28 30 35 43 52 53 52 55 57 48 47

GFSNIL_sfc_rhum_054.txt.gz
RH
68 68 62 58 51 47 45 44 41 36 37 37 39 43 50 56 55 52 56 43 44 48
65 64 61 51 44 42 37 34 32 30 33 35 32 38 45 49 38 36 39 43 46 50
60 56 48 40 38 37 30 29 30 29 30 31 32 32 35 36 32 34 42 44 42 48
48 43 36 32 30 27 28 27 32 28 29 30 28 27 29 29 32 34 40 43 46 49
38 33 30 28 26 29 26 25 26 25 26 26 27 24 25 28 31 37 42 44 48 51
35 32 29 27 26 25 24 27 24 27 27 29 30 28 27 31 35 40 44 47 50 52
36 30 26 25 25 26 25 26 29 28 30 31 29 29 34 39 46 49 47 50 52 51
28 26 26 28 28 28 28 31 31 32 32 32 33 34 53 56 58 57 54 51 48 48
32 30 31 30 32 32 36 35 36 35 34 39 24 44 50 55 64 60 56 57 52 50
34 35 34 32 33 36 38 37 36 35 32 33 46 47 49 52 62 64 63 56 55 51
36 35 36 37 38 39 39 36 34 33 34 37 41 45 48 54 64 60 57 55 55 58
36 34 35 36 38 38 35 34 34 36 37 38 45 43 44 55 64 60 61 55 56 57
33 34 36 39 37 37 39 36 38 37 38 43 42 37 42 51 62 71 68 66 64 61
35 36 35 36 36 38 41 40 40 40 40 38 40 44 39 45 59 69 69 79 66 61

GFSNIL_sfc_rhum_057.txt.gz
RH
88 88 83 79 76 65 62 56 48 41 45 47 51 54 56 56 58 58 56 45 46 51
84 82 82 78 72 61 55 46 40 42 41 44 44 45 48 52 37 46 46 45 48 52
82 79 72 66 60 46 39 36 38 39 39 39 36 37 40 38 35 35 44 47 44 50
71 65 58 51 42 35 33 33 33 34 33 37 30 30 33 36 33 36 40 44 47 50
51 49 44 41 34 30 30 30 29 28 29 28 27 26 27 28 32 37 41 44 49 51
39 36 36 31 30 29 30 30 29 27 28 27 30 28 30 33 36 41 45 48 51 54
38 35 30 29 30 36 36 38 29 31 31 32 31 33 43 48 52 52 49 54 55 55
36 32 34 37 38 36 34 30 32 30 31 33 37 38 55 57 58 58 59 57 54 54
38 39 41 38 37 37 33 32 33 34 36 35 36 52 53 56 61 63 63 64 61 57
42 51 55 50 40 44 35 34 38 38 39 42 51 50 50 53 64 66 65 62 61 56
71 66 58 40 38 43 44 41 39 37 38 43 47 49 49 53 64 66 63 62 64 67
72 61 54 60 65 53 38 39 38 41 39 41 57 45 44 55 65 65 70 65 66 69
64 55 47 36 37 41 38 39 40 38 40 42 41 37 38 46 63 70 70 72 72 68
57 46 37 39 41 44 42 40 41 41 42 41 43 45 39 41 56 64 76 82 72 69

GFSNIL_sfc_rhum_060.txt.gz
RH
94 94 93 88 88 84 81 82 70 65 60 56 50 51 53 59 64 61 54 43 49 55
95 94 91 90 86 85 82 72 64 62 59 50 49 50 55 56 50 45 44 50 47 56
94 92 89 85 84 80 74 60 61 57 47 46 46 44 43 39 38 39 44 50 48 52
94 88 86 83 76 68 56 51 44 41 42 40 41 43 38 38 34 37 44 47 48 51
86 83 81 75 66 52 48 42 38 34 34 34 34 33 31 30 34 38 42 45 51 51
72 65 62 52 46 44 38 35 32 32 34 32 32 30 32 33 37 41 45 51 55 55
58 51 44 35 35 36 35 36 36 31 30 33 35 38 42 47 50 51 53 56 57 56
48 43 37 40 42 39 35 34 35 33 33 39 41 42 55 57 57 59 60 59 57 58
43 46 49 48 45 45 48 48 50 57 55 53 49 55 59 61 62 59 61 63 64 60
51 54 56 57 57 63 61 62 70 64 54 56 57 56 56 62 60 63 65 66 65 60
74 79 79 77 78 69 74 70 62 46 43 56 51 52 52 59 65 68 68 68 68 71
88 98 92 94 95 84 75 57 42 44 42 52 56 48 48 62 67 62 65 66 69 74
100 100 97 75 74 68 62 52 46 41 38 42 43 43 38 51 64 64 64 69 73 69
99 87 62 59 55 53 46 43 42 42 43 48 47 48 41 44 59 64 75 78 72 70

GFSNIL_sfc_rhum_063.txt.gz
RH
95 96 95 94 94 89 87 88 84 82 80 73 66 62 62 62 60 56 54 42 46 54
98 98 97 95 95 95 91 86 84 81 76 70 61 52 57 57 53 44 48 47 48 53
99 97 97 96 96 92 88 80 79 78 66 59 55 50 47 44 42 41 48 49 47 49
98 97 96 95 92 88 80 77 73 66 56 48 45 43 40 41 39 41 45 45 46 50
97 95 94 90 88 80 76 65 55 47 43 44 44 38 35 32 38 41 42 45 48 50
95 93 85 76 72 63 54 43 42 42 42 38 36 32 33 36 43 50 55 56 51 52
78 71 63 57 53 48 40 40 40 37 35 38 41 45 53 62 70 68 54 56 56 55
63 48 46 46 42 42 36 33 32 35 41 48 52 52 66 69 67 55 56 57 58 58
48 50 48 46 48 46 49 52 57 66 75 86 82 86 83 71 59 57 59 59 58 61
61 63 64 65 66 71 74 75 82 85 82 85 82 79 75 69 61 61 59 62 65 61
75 80 81 85 89 86 87 90 93 96 99 98 87 75 66 60 59 62 66 69 71 75
89 93 92 94 98 99 99 99 98 90 89 75 60 53 56 60 62 58 63 65 72 75
99 97 99 98 99 100 99 94 85 66 51 53 54 45 39 57 64 65 66 73 73 69
98 99 99 98 99 87 68 49 45 45 48 53 50 55 44 55 64 70 79 77 74 72

GFSNIL_sfc_rhum_066.txt.gz
RH
97 98 96 95 96 96 95 94 94 93 91 91 85 83 79 77 71 65 62 48 49 53
95 99 98 97 97 97 97 96 92 92 90 84 74 65 67 68 59 51 50 49 50 54
95 98 98 98 98 97 96 91 91 90 86 78 66 54 49 49 44 45 50 51 49 53
98 99 98 98 98 96 93 90 86 82 78 70 59 45 44 43 42 44 46 47 48 52
96 95 96 94 88 81 82 75 70 62 55 46 42 41 40 42 45 50 50 51 52 54
93 89 87 84 78 74 70 61 52 48 46 44 44 46 49 52 54 61 67 71 76 76
83 78 72 68 66 61 54 54 52 44 41 40 42 49 57 66 76 78 75 76 77 74
64 58 54 51 47 45 45 41 42 45 52 56 62 64 77 80 84 78 79 78 74 72
51 47 47 47 45 47 52 57 67 72 77 84 84 85 83 82 85 89 83 88 74 60
65 69 71 64 65 70 76 79 86 90 90 94 93 91 90 91 92 92 88 63 61 59
81 88 91 87 91 85 85 89 94 96 98 99 97 96 88 89 93 76 63 66 69 72
87 92 91 94 99 98 98 99 99 100 100 99 98 91 81 66 58 57 60 64 71 76
98 98 99 98 99 100 97 98 98 98 98 92 90 74 54 62 61 65 70 73 74 69
100 100 98 98 99 99 98 96 84 78 61 55 52 58 56 61 69 73 80 79 75 74

GFSNIL_sfc_rhum_069.txt.gz
RH
78 85 90 89 91 91 91 91 87 88 84 80 78 78 77 81 79 78 80 68 58 53
71 81 88 90 88 88 87 89 88 86 87 84 81 79 78 79 72 63 62 59 53 52
70 76 85 92 91 89 88 86 88 87 86 84 79 76 76 72 54 48 50 51 50 55
76 86 91 91 90 89 86 86 86 84 80 76 70 63 56 50 45 44 46 50 51 55
90 89 91 90 87 82 83 80 77 72 65 56 48 45 40 42 42 45 52 62 66 66
87 87 88 84 79 76 73 69 63 54 49 46 45 45 48 54 62 68 72 77 81 83
82 80 78 73 66 59 54 54 51 46 47 47 50 56 61 68 75 77 76 80 84 88
64 59 55 59 55 53 52 50 54 59 59 60 62 62 71 76 80 86 92 96 99 98
54 52 49 49 51 54 58 66 73 80 79 82 80 84 83 86 92 94 97 97 93 91
71 72 69 66 69 75 81 83 88 92 90 93 91 88 89 91 95 93 91 84 65 68
82 86 84 83 90 94 93 94 96 97 98 99 94 88 82 87 91 89 66 72 79 69
88 92 90 94 100 99 98 99 100 100 100 99 89 80 83 76 61 58 64 70 68 62
100 100 99 97 100 100 100 99 99 99 94 88 89 80 85 72 53 72 62 62 60 66
100 100 99 98 99 99 99 97 94 92 87 79 58 70 72 65 61 64 66 64 63 63

GFSNIL_sfc_rhum_072.txt.gz
RH
44 54 70 74 73 76 80 82 79 84 85 83 81 78 75 77 78 76 80 70 63 56
44 49 57 65 81 87 80 81 75 82 88 85 86 82 84 87 81 80 74 69 56 58
51 50 52 56 64 80 86 86 86 87 87 87 85 84 85 87 81 81 79 68 54 56
57 55 61 66 71 77 81 82 85 84 85 85 82 79 74 67 60 64 72 78 79 74
73 74 76 77 74 76 77 75 76 77 77 73 67 58 52 47 49 55 62 65 70 77
74 73 77 76 75 73 70 68 67 61 56 51 48 46 46 48 56 62 67 73 78 85
71 74 71 66 61 59 54 52 51 49 49 52 53 58 59 67 70 73 77 79 83 89
56 57 56 56 52 51 53 52 54 59 63 64 67 69 75 80 80 86 90 96 98 100
57 57 59 59 61 61 62 66 72 75 78 82 80 82 84 89 93 91 94 97 92 88
70 71 68 66 68 73 78 82 86 88 92 95 95 95 94 92 99 98 92 80 73 61
79 82 82 86 91 91 92 96 97 97 98 99 94 94 89 84 88 76 68 69 69 69
82 91 92 95 100 99 98 100 100 100 99 98 99 88 76 55 50 58 67 70 67 57
99 98 98 96 100 100 100 99 96 99 97 92 74 77 75 66 71 57 49 51 50 61
99 100 98 98 99 100 99 91 89 88 76 68 72 65 66 59 51 51 52 51 51 51

GFSNIL_sfc_rhum_075.txt.gz
RH
38 40 43 56 57 58 68 70 79 82 85 85 86 86 87 89 88 85 87 83 80 74
42 42 46 49 59 70 77 89 85 86 91 90 92 93 92 94 92 92 92 89 80 76
49 47 47 47 53 60 79 85 87 90 92 92 91 91 93 96 93 91 92 92 90 92
55 54 54 56 57 66 73 77 83 86 90 89 89 89 91 90 83 84 86 85 84 88
68 69 70 69 65 66 71 73 76 78 80 79 79 70 66 70 74 77 78 81 85 87
70 69 71 71 70 68 67 65 62 60 58 55 55 51 51 58 65 72 77 79 82 86
64 62 60 55 55 52 52 52 51 51 52 54 56 58 62 68 76 77 81 81 85 87
56 59 57 57 58 57 58 59 62 64 66 69 72 72 79 84 89 92 97 98 98 98
62 62 66 66 69 71 73 74 76 78 80 84 83 83 84 89 94 96 98 98 99 92
68 70 72 72 73 77 82 84 89 91 87 94 94 94 97 98 100 99 99 98 96 76
77 83 87 89 93 95 95 96 97 97 96 96 90 90 88 85 92 85 74 69 66 62
84 91 90 96 100 99 97 99 100 100 98 95 85 72 68 59 57 66 74 79 79 57
96 98 99 98 100 100 100 98 96 98 82 73 73 70 66 66 69 69 57 53 52 61
97 99 98 98 99 94 92 87 85 79 69 66 64 65 63 58 51 53 57 54 53 55

GFSNIL_sfc_rhum_078.txt.gz
RH
61 62 62 63 77 87 86 90 82 90 92 92 94 96 96 97 95 96 96 95 95 84
63 64 66 64 67 84 88 94 94 92 93 94 96 96 97 98 98 98 98 98 92 88
71 68 68 68 71 80 95 92 92 95 97 97 97 96 97 98 96 95 96 95 93 94
87 84 84 86 87 88 88 90 91 94 94 93 94 93 94 92 92 93 94 93 92 92
71 78 85 87 84 81 82 82 82 82 80 79 72 69 76 80 83 86 88 90 90 93
66 65 62 60 55 54 54 53 51 51 52 52 54 58 62 69 74 79 83 87 89 92
63 60 58 57 56 58 57 59 60 59 62 64 65 68 72 76 81 84 85 88 89 92
63 62 63 66 66 64 66 68 70 72 72 72 72 73 81 84 89 94 97 98 98 98
68 70 75 75 76 77 78 79 80 84 84 84 78 80 83 91 95 94 96 99 99 99
75 79 79 78 80 84 88 90 92 91 92 92 84 85 89 91 96 96 98 99 99 92
85 90 90 93 97 97 97 97 96 96 95 95 90 85 85 82 92 91 90 86 83 76
88 93 96 97 99 99 98 99 100 97 95 92 80 66 64 73 83 90 91 85 85 72
98 99 99 97 100 100 99 98 93 91 90 78 85 65 65 76 86 91 88 75 70 61
98 99 98 98 97 95 95 91 91 91 88 88 82 73 61 57 70 71 77 68 68 70

GFSNIL_sfc_rhum_081.txt.gz
RH
70 73 72 70 73 88 94 93 95 96 95 94 94 96 96 98 97 97 98 97 97 94
79 75 76 77 79 84 94 96 95 93 94 93 93 94 96 98 99 98 98 98 98 96
92 91 91 90 93 95 95 94 95 96 98 98 97 97 98 98 96 96 97 96 95 96
91 92 93 93 93 91 93 94 96 97 96 92 90 92 92 92 92 94 94 93 93 95
80 79 82 75 71 81 85 86 86 79 73 66 65 72 78 82 84 87 90 90 91 92
63 58 57 56 55 53 54 53 52 53 55 58 64 68 72 75 80 84 86 89 92 93
62 61 60 61 62 62 61 62 64 64 66 69 72 74 76 80 85 88 88 89 91 92
66 66 68 70 69 70 72 72 72 73 72 72 74 74 83 87 91 94 97 98 98 97
73 75 78 78 79 81 83 84 83 83 82 84 81 82 85 93 96 96 98 99 100 99
79 81 82 82 84 88 90 89 92 91 86 85 81 82 87 89 96 96 98 98 99 92
88 92 93 94 97 97 96 96 96 96 95 94 89 86 86 85 92 94 94 92 90 90
90 96 97 98 99 98 97 98 98 94 92 92 85 69 71 81 89 88 88 84 85 78
98 98 99 97 100 100 96 92 92 93 90 77 84 64 67 80 85 89 86 86 76 61
98 99 98 98 97 96 95 95 94 95 92 88 82 72 61 64 73 74 78 72 71 72

GFSNIL_sfc_rhum_084.txt.gz
RH
74 74 71 70 73 85 95 96 94 97 96 96 95 96 96 98 98 98 98 98 96 94
91 84 80 79 82 86 96 97 96 97 97 95 95 94 94 97 98 98 99 99 99 97
93 93 92 93 96 96 96 95 96 98 98 98 98 98 98 99 96 97 97 96 96 96
94 94 93 95 94 94 95 96 98 97 96 94 94 89 91 92 91 94 94 93 93 96
75 76 77 76 76 85 92 84 82 77 74 76 84 88 85 85 87 90 91 91 92 93
68 66 61 63 62 59 60 61 61 64 67 70 73 76 77 80 84 87 88 90 92 93
72 69 64 64 64 64 64 67 68 69 72 74 75 77 79 83 87 88 89 89 91 92
71 70 71 73 74 74 73 72 71 73 73 74 76 77 85 87 91 95 97 97 96 95
76 77 79 80 83 84 84 82 81 83 83 86 83 84 86 94 96 96 96 100 100 99
80 83 85 85 86 88 91 89 89 88 85 85 87 83 85 90 97 98 99 99 98 90
89 93 93 94 97 97 95 96 97 95 94 95 88 85 86 88 95 96 94 92 90 88
92 96 97 98 99 98 97 98 99 97 94 93 90 77 77 83 89 86 90 86 84 79
98 98 99 98 100 100 96 93 90 92 90 76 86 68 69 77 81 87 84 81 78 65
98 98 98 98 96 94 97 94 94 94 90 86 81 76 66 64 70 74 80 75 72 72

GFSNIL_sfc_rhum_087.txt.gz
RH
77 77 72 69 72 82 93 96 95 97 97 97 97 97 97 98 98 98 99 98 98 97
90 83 81 81 84 86 92 98 97 96 97 97 97 96 96 98 99 99 98 99 98 98
93 93 93 93 93 95 96 96 97 99 98 98 98 98 98 98 97 96 97 97 97 96
95 93 94 95 95 95 96 97 98 98 96 95 95 92 93 93 93 94 96 94 94 95
80 78 81 81 84 93 91 84 84 81 85 91 93 93 87 90 95 95 92 92 92 93
75 73 74 72 69 66 68 69 70 73 78 83 86 88 90 93 93 88 90 91 92 93
75 76 77 70 66 66 66 68 71 72 76 78 78 80 82 84 87 89 89 90 91 92
76 78 79 76 75 74 72 72 72 75 76 76 78 79 86 88 92 94 96 96 96 95
84 81 82 83 84 83 82 81 82 84 86 88 85 86 88 92 95 96 97 100 100 95
86 85 86 85 86 89 89 87 90 88 87 93 90 84 91 96 97 99 100 100 98 86
89 92 93 94 96 97 95 96 94 95 93 90 83 83 87 91 96 96 94 90 85 85
92 96 96 98 100 98 98 99 100 100 98 98 91 83 82 82 85 84 89 83 83 83
96 98 99 98 100 99 96 94 89 90 90 79 87 69 70 75 77 86 82 84 81 66
98 98 98 97 95 94 92 88 93 92 88 86 85 76 66 67 71 75 82 75 71 71

GFSNIL_sfc_rhum_090.txt.gz
RH
72 69 68 67 67 76 88 92 94 97 98 98 98 98 97 98 98 97 97 96 98 98
89 84 82 82 84 84 87 96 98 98 97 97 98 98 98 99 99 99 99 99 99 98
94 94 94 93 93 94 96 96 98 97 97 98 98 98 98 99 98 98 99 98 98 97
94 93 94 95 96 97 97 98 98 94 92 92 93 93 94 96 95 96 97 97 97 97
84 84 87 87 90 93 89 83 86 90 94 95 94 89 89 91 91 92 94 93 93 95
75 75 76 76 74 73 74 75 78 82 87 89 92 95 96 95 95 94 96 96 95 93
79 78 79 76 76 75 74 76 75 75 78 82 85 88 89 91 93 93 92 91 91 91
82 81 82 83 81 75 73 73 74 77 78 79 80 80 87 88 91 92 94 94 92 94
87 86 89 89 89 81 81 81 83 86 87 90 86 88 88 91 94 95 99 100 99 92
91 91 93 88 87 87 88 88 91 91 90 92 92 89 90 93 100 100 100 99 92 80
94 96 92 93 96 96 95 94 94 93 91 90 84 90 94 95 97 96 94 87 78 85
92 96 95 97 100 99 98 100 100 100 100 99 93 84 87 83 82 81 84 80 84 87
95 97 98 98 100 100 99 97 93 94 91 86 92 75 70 75 75 83 83 85 84 69
97 99 97 97 96 96 95 91 90 89 87 89 84 72 64 64 69 74 84 78 72 73

GFSNIL_sfc_rhum_093.txt.gz
RH
76 79 75 73 74 76 80 81 82 85 90 90 92 91 90 90 90 88 91 86 86 84
69 67 65 66 66 68 70 80 84 88 89 88 91 92 94 95 93 92 90 92 95 95
78 77 78 75 77 81 84 87 91 86 84 87 91 92 96 99 98 98 98 97 96 94
79 78 81 84 86 87 87 87 88 85 84 85 87 88 94 95 95 95 94 94 94 93
71 72 74 78 79 78 76 74 77 82 82 84 85 84 88 89 91 94 89 91 91 92
68 67 67 66 66 66 67 68 70 74 79 81 84 85 83 85 85 85 86 87 86 85
69 68 66 65 65 64 65 68 69 71 74 77 78 81 82 83 84 84 83 84 82 83
71 70 71 71 70 68 68 69 70 72 73 74 77 77 81 83 84 86 87 87 86 89
75 75 77 77 75 74 74 74 77 80 80 83 82 86 87 87 90 90 95 100 99 86
79 82 82 81 79 79 80 81 86 87 86 90 89 88 89 94 100 100 100 99 92 78
83 86 86 85 88 90 88 88 90 89 88 92 90 89 90 91 92 89 80 70 64 65
86 90 90 92 98 96 95 99 100 100 98 96 92 91 93 87 80 69 64 66 70 74
91 91 94 94 100 100 98 98 96 97 93 89 88 84 78 70 62 64 65 73 71 72
92 93 91 94 95 96 96 93 92 91 85 80 72 67 66 66 57 62 69 66 65 62

GFSNIL_sfc_rhum_096.txt.gz
RH
84 87 86 83 88 84 89 87 82 84 84 83 84 84 83 86 84 82 83 79 76 75
77 74 74 70 67 69 65 66 66 71 71 72 75 82 86 91 92 88 87 84 80 79
64 62 61 55 56 58 62 63 65 66 65 65 67 71 80 92 94 92 96 97 92 91
56 58 60 61 62 66 67 67 70 67 67 68 70 73 80 86 94 96 97 97 96 92
54 55 57 60 62 62 62 63 65 69 71 70 71 74 80 87 89 94 94 95 90 88
53 52 53 55 57 57 57 58 59 62 66 69 73 75 74 78 84 86 86 82 89 83
56 54 54 54 55 55 55 57 58 59 61 64 66 69 71 77 79 80 81 80 75 78
56 56 55 56 57 55 56 56 58 59 60 62 65 66 73 74 73 75 78 78 77 78
58 58 60 59 59 58 59 60 62 64 65 68 68 84 83 80 82 82 85 98 91 80
60 63 64 63 62 63 63 64 70 74 77 80 82 86 87 91 100 100 100 99 93 79
63 66 69 69 71 72 74 77 80 81 85 88 85 87 90 91 90 88 81 76 71 67
66 71 73 75 84 82 85 93 98 94 92 92 89 87 89 84 78 72 63 57 54 52
76 84 82 79 95 98 91 96 93 96 88 87 89 88 87 74 61 57 53 61 66 67
81 86 80 80 85 89 93 94 93 94 89 84 80 78 77 63 49 48 55 59 56 54

GFSNIL_sfc_rhum_099.txt.gz
RH
73 77 78 76 85 87 87 86 92 88 89 87 87 86 85 89 90 93 92 89 86 80
84 83 89 82 82 87 85 91 91 85 86 84 86 88 92 95 94 91 89 88 85 86
70 69 69 66 67 71 69 66 68 66 63 64 67 67 75 86 93 96 96 97 97 96
60 62 61 63 62 66 68 67 66 63 61 61 63 62 70 77 86 95 98 98 98 97
51 52 53 57 60 60 61 62 64 67 67 66 68 73 74 80 89 94 97 97 95 97
49 49 50 52 53 54 55 57 59 62 65 67 71 72 72 77 83 86 89 92 93 92
50 49 49 51 52 53 53 55 57 57 60 62 63 67 70 76 78 82 85 87 85 85
53 53 52 54 53 52 53 54 56 57 58 59 63 63 69 72 77 82 84 85 84 85
54 55 57 56 56 56 57 58 59 62 62 64 66 83 80 77 83 86 88 96 90 82
55 58 59 59 58 60 60 61 66 69 71 74 78 84 85 92 100 100 100 100 94 80
57 61 64 65 66 68 69 71 74 76 81 85 84 86 90 92 93 91 86 80 76 75
60 65 67 70 78 77 79 84 90 90 90 93 90 87 88 84 80 79 74 70 66 64
68 69 75 72 89 96 86 90 88 92 90 86 88 87 86 82 76 72 66 64 64 56
74 76 76 77 86 86 87 87 87 91 90 88 87 86 84 73 64 59 62 67 66 69

GFSNIL_sfc_rhum_102.txt.gz
RH
85 88 89 90 92 91 93 95 97 98 98 96 93 94 95 96 97 96 97 97 96 94
89 88 87 88 88 92 93 94 95 94 97 95 94 91 93 97 96 97 96 95 94 93
91 94 94 93 89 88 86 86 90 92 90 88 89 87 90 96 96 98 98 98 98 97
84 77 83 86 88 92 87 84 85 82 85 79 84 81 83 89 92 95 98 98 99 98
73 76 78 83 82 83 82 78 79 78 77 78 80 84 89 90 93 95 97 98 99 99
68 70 73 72 72 70 71 75 74 74 78 79 82 84 87 90 92 93 95 97 98 97
66 70 69 70 69 71 69 72 73 73 73 74 75 78 84 88 87 89 89 89 91 93
71 69 70 68 67 68 70 71 69 72 73 75 76 74 90 89 91 91 92 90 88 91
70 70 71 73 70 74 75 75 76 78 78 83 76 82 82 85 93 93 93 96 94 90
70 73 74 73 73 75 80 81 86 87 86 91 92 83 83 96 100 100 100 100 97 85
74 78 79 80 83 87 89 89 91 92 93 94 92 85 89 93 98 97 92 88 84 83
76 83 84 89 91 91 93 94 94 93 94 96 95 86 87 88 88 88 86 82 80 76
81 86 88 91 96 95 92 94 94 93 96 90 95 86 85 82 81 83 78 73 74 66
88 90 90 94 95 97 95 94 94 96 96 94 92 91 84 77 72 78 78 82 79 74

GFSNIL_sfc_rhum_105.txt.gz
RH
94 97 96 92 95 93 94 94 96 97 98 98 98 97 97 99 98 98 97 96 94 92
96 96 96 95 95 93 94 95 97 97 95 95 94 97 98 98 97 98 98 98 97 98
94 94 93 94 93 94 94 94 96 97 94 95 96 96 97 98 97 99 99 98 98 98
91 90 92 93 92 91 91 92 94 94 95 88 84 81 86 93 93 96 97 98 99 99
86 87 89 91 92 90 89 88 84 85 89 84 81 83 89 92 93 94 95 95 98 99
85 86 86 87 83 78 78 80 82 85 86 86 88 88 90 91 93 94 95 96 98 98
81 83 81 77 75 75 78 81 82 80 80 81 83 87 89 90 92 92 92 91 92 95
80 78 79 77 75 75 75 76 78 78 79 81 79 78 90 91 92 92 92 90 89 92
78 78 79 78 78 77 77 78 79 82 84 87 82 81 81 86 94 94 95 96 94 92
79 81 81 80 80 81 85 87 90 90 90 93 93 83 83 96 100 100 100 100 98 87
82 83 84 84 86 89 91 91 93 94 94 94 95 85 87 89 99 99 96 93 88 86
83 88 88 90 92 92 93 94 95 95 94 96 95 86 86 90 95 95 92 87 85 83
86 89 90 92 94 94 94 96 94 96 97 93 96 85 86 85 88 89 87 80 86 78
88 90 90 94 96 97 96 95 96 98 96 94 94 91 82 81 79 82 83 85 84 83

GFSNIL_sfc_rhum_108.txt.gz
RH
96 97 97 97 98 98 98 97 96 97 97 97 97 97 98 99 99 99 99 98 98 97
96 96 95 95 94 96 94 95 96 97 97 96 96 97 97 98 99 99 98 98 98 97
95 95 94 95 95 94 94 94 96 97 96 95 97 97 98 98 98 98 98 98 98 97
96 95 95 95 95 94 94 94 96 96 96 96 96 94 96 96 96 98 97 98 99 99
96 96 96 96 94 93 94 93 92 92 92 88 88 88 90 92 95 96 96 95 97 97
93 93 93 93 92 89 87 87 89 86 87 90 88 87 92 92 93 94 95 96 97 97
92 92 90 88 87 86 86 88 88 88 88 86 87 88 91 91 92 93 94 94 94 94
89 88 87 86 86 86 85 85 84 83 85 85 81 81 89 92 92 93 93 92 92 90
84 84 85 85 85 85 85 85 85 87 87 88 86 82 82 87 94 94 95 96 94 93
83 84 84 84 85 87 88 88 90 90 90 92 93 83 85 94 100 100 100 98 97 92
85 86 87 88 89 90 91 92 93 92 93 94 95 84 81 83 97 99 98 96 95 88
85 89 90 90 91 92 93 94 94 95 95 96 95 86 81 89 95 96 94 88 86 84
88 89 90 91 93 94 94 94 97 97 97 93 96 87 82 86 95 95 94 86 85 82
89 90 91 93 95 96 96 97 97 97 95 96 94 91 84 80 91 94 92 88 87 85

GFSNIL_sfc_rhum_111.txt.gz
RH
97 98 98 98 98 99 99 98 98 99 98 98 96 96 97 98 99 98 99 98 99 100
98 98 98 97 97 98 96 96 97 96 97 97 97 97 97 98 98 98 98 98 98 99
96 96 96 96 96 95 94 93 94 96 97 96 96 97 98 98 97 98 98 98 99 98
97 95 95 95 94 94 92 91 94 96 98 98 97 98 99 99 98 98 98 96 98 97
96 96 96 96 96 94 94 94 95 96 97 96 94 92 93 95 95 94 95 96 97 96
97 96 96 96 93 92 92 93 92 93 93 93 91 90 87 88 90 93 95 95 96 96
95 94 94 88 87 91 90 92 93 92 92 91 92 92 93 92 93 92 94 93 93 94
93 93 92 91 91 91 90 90 90 90 90 89 88 88 92 92 94 94 93 93 94 94
91 91 91 91 91 90 90 90 90 90 90 92 93 85 88 95 98 98 99 98 96 94
88 88 88 89 89 90 90 90 92 92 92 94 94 85 87 94 100 100 100 100 98 96
87 88 89 90 90 91 92 92 93 94 94 94 95 84 82 84 96 98 96 95 94 92
88 90 91 91 92 92 93 94 94 94 94 94 94 86 80 86 94 97 95 91 89 85
89 90 91 91 93 94 93 93 96 96 96 93 96 88 80 86 95 96 96 92 90 83
90 91 90 93 94 95 95 96 97 98 96 96 95 95 85 84 90 90 92 95 93 91

GFSNIL_sfc_rhum_114.txt.gz
RH
95 96 97 94 95 97 97 94 98 98 98 98 99 99 99 99 99 98 98 98 99 99
95 95 97 94 96 99 99 99 99 99 99 98 98 96 96 98 97 98 97 98 98 98
99 98 98 98 98 98 98 98 97 98 97 98 97 98 98 98 97 98 98 98 98 99
98 97 97 97 97 96 94 94 94 95 97 98 98 98 99 98 98 97 97 95 93 93
97 97 97 97 97 95 95 95 95 97 98 98 97 96 97 98 96 95 94 94 93 95
98 97 98 98 97 96 95 95 94 96 96 95 91 88 87 89 90 90 93 95 95 96
97 97 97 95 94 94 94 95 96 95 94 93 90 90 91 92 93 94 95 94 94 95
96 95 95 94 94 94 93 94 93 94 93 91 89 88 93 93 94 94 94 94 94 94
92 94 94 94 94 93 94 93 93 92 92 95 96 90 89 93 98 99 99 100 99 95
92 92 93 93 92 93 93 92 94 94 94 96 96 90 95 93 99 99 100 100 97 96
90 88 90 92 92 93 93 94 95 95 94 96 96 85 85 90 95 96 96 95 94 93
90 91 92 92 93 93 94 94 94 95 94 94 95 86 82 91 96 95 95 93 92 92
90 91 91 92 93 94 93 94 97 97 96 89 95 86 80 86 96 95 96 92 88 82
91 91 91 93 94 95 96 97 97 98 97 96 95 94 85 80 94 92 92 92 91 87

GFSNIL_sfc_rhum_117.txt.gz
RH
98 99 99 100 98 99 99 99 98 99 98 98 99 98 97 97 97 99 99 98 98 98
98 98 98 99 99 99 98 99 99 98 98 98 98 98 98 99 96 90 91 90 89 89
97 98 99 98 98 99 98 98 98 98 97 99 98 97 92 90 89 90 92 94 94 95
98 98 98 98 98 98 96 97 97 96 93 94 94 93 93 92 90 91 95 90 88 87
96 95 96 96 95 93 94 90 89 91 93 92 92 93 95 97 94 91 88 87 86 87
96 94 94 94 92 89 93 94 95 96 96 93 91 89 88 84 83 83 83 86 80 80
95 93 92 91 90 88 85 89 90 89 88 84 81 81 81 82 81 82 81 83 83 82
94 90 87 86 86 86 84 85 85 84 82 81 81 81 80 81 81 83 85 86 84 85
90 88 86 85 86 82 84 82 80 80 81 85 89 87 86 85 88 90 89 96 91 85
86 86 85 83 82 83 81 79 82 84 85 91 93 93 92 95 98 100 100 97 91 87
85 86 86 86 84 85 84 83 85 86 89 93 91 88 91 93 90 91 89 86 84 81
84 87 86 86 88 87 88 90 92 91 92 94 92 88 88 88 86 88 86 82 80 79
86 86 87 86 91 91 88 90 91 91 88 88 88 87 84 86 84 83 81 81 77 80
86 87 86 87 88 89 91 91 91 93 92 89 87 84 84 86 83 81 80 80 80 78